Location: Stilling
(56.0622°N, 9.9882°E)
Time: 13:15:32
(UTC+00:00)

Cosmos 2123 Rocket - Pass Details

Date: 13 July 2020
Orbit: 960 x 993 km, 82.9° (Epoch: 06 August)

Event Time Altitude Azimuth Distance (km) Brightness Sun altitude
Rises 22:55:23 0° 348° (NNW) 3,669 9.1 -12.0°
Reaches altitude 10° 22:57:55 10° 350° (N) 2,715 7.9 -12.1°
Maximum altitude 23:04:08 76° 76° (ENE) 998 4.1 -12.2°
Enters shadow 23:09:20 15° 162° (SSE) 2,332 5.4 -12.2°
